Teller, AK

5:02 PM AKDT on July 22, 2017 (GMT -0800)
Teller

Weather History for PATE - January, 2014

Change the Weather History Date:

Wednesday, January 15, 2014

  Actual Average (PATC) Record (PATC)
Temperature  
Mean Temperature -6 °F -  
Max Temperature -2 °F 7 °F 32 °F (2002)
Min Temperature -9 °F -1 °F -32 °F (2008)
Degree Days  
Heating Degree Days 70    
Moisture  
Dew Point -9 °F    
Average Humidity 85    
Maximum Humidity 92    
Minimum Humidity 79    
Precipitation  
Precipitation 0.00 in - - ()
Sea Level Pressure  
Sea Level Pressure 29.90 in    
Wind  
Wind Speed 18 mph (NNE)    
Max Wind Speed 32 mph    
Max Gust Speed 38 mph    
Averages and records for this station are not official NWS values.
T = Trace of Precipitation, MM = Missing Value Source: NWS Daily Summary

Daily Weather History Graph

Daily Weather History Graph

Search for Another Location

Airport or City:

Trip Planner

Search our weather history database for the weather conditions in past years. The results will help you decide how hot, cold, wet, or windy it might be!

Date:

Astronomy

Jan. 15, 2014 Rise Set
Actual Time 11:45 AM AKST 4:44 PM AKST
Civil Twilight 10:32 AM AKST 5:57 PM AKST
Nautical Twilight 9:25 AM AKST 7:05 PM AKST
Astronomical Twilight 8:24 AM AKST 8:05 PM AKST
Moon 5:30 PM AKST (1/15) 10:37 AM AKST (1/15)
Length of Visible Light 7h 25m
Length of Day
4h 58m
Full, 100% of the Moon is Illuminated
Jan 15
Full
Jan 15
Full
Jan 23
Last Quarter
Jan 30
New
Feb 6
First Quarter

Hourly Weather History & Observations

Time (AKST) Temp. Windchill Dew Point Humidity Pressure Visibility Wind Dir Wind Speed Gust Speed Precip Events Conditions
12:45 AM -5.8 °F -26.8 °F -9.4 °F 84% 29.71 in - NNE 15.0 mph - N/A   Overcast
12:58 AM -6.0 °F -27.0 °F -9.0 °F 87% 29.76 in - NNE 15.0 mph - N/A   Overcast
1:30 AM -5.8 °F -28.2 °F -9.4 °F 84% 29.73 in - North 17.3 mph - N/A   Overcast
1:58 AM -6.0 °F -27.0 °F -9.9 °F 83% 29.78 in - NNE 15.0 mph - N/A   Overcast
2:58 AM -5.1 °F -25.1 °F -8.0 °F 87% 29.81 in - NNE 13.8 mph - N/A   Overcast
3:27 AM -5.8 °F -23.4 °F -9.4 °F 84% 29.78 in - ENE 10.4 mph - N/A   Overcast
3:58 AM -5.1 °F -23.5 °F -8.0 °F 87% 29.83 in - NE 11.5 mph - N/A   Overcast
4:58 AM -4.0 °F -25.2 °F -7.1 °F 87% 29.85 in - North 16.1 mph - N/A   Overcast
5:58 AM -2.9 °F -24.4 °F -6.0 °F 87% 29.87 in - North 17.3 mph - N/A   Overcast
6:19 AM -2.2 °F -24.1 °F -5.8 °F 85% 29.83 in - North 18.4 mph - N/A   Overcast
6:58 AM -2.0 °F -24.4 °F -6.0 °F 83% 29.89 in - NNE 19.6 mph - N/A   Overcast
7:58 AM -2.0 °F -25.0 °F -6.0 °F 83% 29.90 in - NNE 20.7 mph - N/A   Overcast
8:40 AM -2.2 °F -25.2 °F -5.8 °F 85% 29.86 in - North 20.7 mph - N/A   Overcast
8:58 AM -2.0 °F -26.0 °F -6.0 °F 83% 29.91 in - North 23.0 mph - N/A   Overcast
9:02 AM -2.2 °F -25.2 °F -5.8 °F 85% 29.86 in - North 20.7 mph - N/A   Overcast
9:28 AM -2.2 °F -25.2 °F -5.8 °F 85% 29.88 in - North 20.7 mph - N/A   Overcast
9:58 AM -2.0 °F -25.0 °F -6.0 °F 83% 29.93 in - North 20.7 mph - N/A   Overcast
10:19 AM -2.2 °F -24.7 °F -5.8 °F 85% 29.89 in - NNE 19.6 mph - N/A   Overcast
10:53 AM -2.2 °F -25.7 °F -5.8 °F 85% 29.90 in - North 21.9 mph 26.5 mph N/A   Overcast
10:58 AM -2.0 °F -26.0 °F -6.0 °F 83% 29.94 in - North 23.0 mph 28.8 mph N/A   Overcast
11:58 AM -2.9 °F -26.1 °F -6.0 °F 87% 29.96 in - North 20.7 mph - N/A   Overcast
12:58 PM -4.0 °F -22.1 °F -7.1 °F 87% 29.97 in - NNE 11.5 mph - N/A   Overcast
1:58 PM -4.0 °F -25.2 °F -8.0 °F 83% 29.97 in - NNE 16.1 mph 20.7 mph N/A   Overcast
2:14 PM -5.8 °F -31.5 °F -7.6 °F 92% 29.92 in - NNE 24.2 mph - N/A   Overcast
2:58 PM -5.1 °F -33.5 °F -8.0 °F 87% 29.96 in - NNE 32.2 mph 35.7 mph N/A   Overcast
3:58 PM -6.0 °F -33.9 °F -9.0 °F 87% 29.97 in - North 29.9 mph 38.0 mph N/A   Overcast
4:58 PM -7.1 °F -34.1 °F -11.0 °F 83% 29.98 in - NNE 26.5 mph - N/A   Overcast
5:58 PM -8.0 °F -33.3 °F -11.9 °F 83% 29.98 in - NNE 21.9 mph - N/A   Overcast
6:58 PM -8.0 °F -33.9 °F -11.9 °F 83% 29.98 in - NNE 23.0 mph - N/A   Partly Cloudy
7:38 PM -7.6 °F -32.9 °F -11.2 °F 84% 29.93 in - NNE 21.9 mph - N/A   Mostly Cloudy
7:58 PM -8.0 °F -32.8 °F -11.9 °F 83% 29.98 in - NNE 20.7 mph - N/A   Mostly Cloudy
8:02 PM -7.6 °F -32.3 °F -11.2 °F 84% 29.94 in - NNE 20.7 mph - N/A   Mostly Cloudy
8:12 PM -7.6 °F -32.9 °F -11.2 °F 84% 29.93 in - NNE 21.9 mph - N/A   Scattered Clouds
8:17 PM -7.6 °F -32.9 °F -11.2 °F 84% 29.94 in - NNE 21.9 mph - N/A   Mostly Cloudy
8:52 PM -9.4 °F -32.8 °F -11.2 °F 92% 29.94 in - NNE 17.3 mph - N/A   Scattered Clouds
8:58 PM -9.0 °F -32.4 °F -11.9 °F 87% 29.98 in - NNE 17.3 mph - N/A   Partly Cloudy
9:58 PM -9.0 °F -34.8 °F -13.0 °F 83% 29.97 in - NNE 21.9 mph - N/A   Partly Cloudy
10:58 PM -9.0 °F -36.8 °F -13.0 °F 83% 29.96 in - NE 26.5 mph - N/A   Clear
11:58 PM -9.0 °F -35.3 °F -14.1 °F 79% 29.96 in - NE 23.0 mph - N/A   Clear